OpenBCM V1.13 (Linux)

Packet Radio Mailbox

DB0FHN

[JN59NK Nuernberg]

 Login: GUEST





  
LU9DCE > KEP      02.04.19 19:34l 252 Lines 12355 Bytes #999 (0) @ WW
BID : 20910_LU9DCE
Read: DF7EAV DK3UZ GUEST
Subj: TLE 02 04
Path: DB0FHN<DB0BLO<DB0ERF<DB0RES<PI8CDR<GB7YEW<LU9DCE
Sent: 190402/1801Z 20910@LU9DCE.TOR.BA.ARG.SOAM LinBPQ6.0.18

            __    _  _  ___  ____   ___  ____    ____  ____  ____
           (  )  / )( \/ _ \(    \ / __)(  __)  (  _ \(  _ \/ ___)
           / (_/\) \/ (\__  )) D (( (__  ) _)    ) _ ( ) _ (\___ \
           \____/\____/(___/(____/ \___)(____)  (____/(____/(____/
               ESTACION DE PACKET RADIO - BUENOS AIRES (GF05OM)
                   BOLETINES INFORMATIVOS PROGRAMADOS (BIP)
                  SOPORTE TECNICO - HELLOCODELINUX@GMAIL.COM

+----------------------------------------------------------------------------+
OSCAR 7
1  7530U 74089B   19091.89771962 -.00000030  00000-0  90752-4 0  9993
2  7530 101.7353  60.3839 0012361 135.8797 281.5807 12.53637483 30779
OSCAR 11 (UoSAT 2)
1 14781U 84021B   19091.84134331  .00000063  00000-0  13813-4 0  9992
2 14781  97.6190 120.2091 0007743 206.0724 154.0102 14.83072831887229
OSCAR 19 (LUSAT)
1 20442U 90005G   19092.44018607 -.00000012  00000-0  11881-4 0  9994
2 20442  98.6420  34.5993 0012228  22.4531 337.7186 14.32920952525316
EYESAT A
1 22825U 93061C   19092.53641136 -.00000008  00000-0  14994-4 0  9998
2 22825  98.8988  79.4322 0007674 218.1328 141.9311 14.30054574330927
ITAMSAT
1 22826U 93061D   19092.13634112 -.00000003  00000-0  16711-4 0  9995
2 22826  98.8927  79.0244 0008353 207.8049 152.2687 14.30387705331062
RADIO ROSTO
1 23439U 94085A   19091.91193059 -.00000054 +00000-0 -34034-3 0  9992
2 23439 064.8151 241.9031 0148016 128.1838 233.2524 11.27568264999122
JAS 2
1 24278U 96046B   19091.90959412 -.00000031 +00000-0 +14830-5 0  9993
2 24278 098.5254 255.9161 0351349 081.8006 282.2819 13.53090169117036
TECHSAT 1B
1 25397U 98043D   19092.09953910 -.00000027  00000-0  73034-5 0  9999
2 25397  98.6823  33.2123 0000182 230.5972 129.5191 14.23662612 76832
ISS (ZARYA)
1 25544U 98067A   19092.59182141  .00001452  00000-0  30812-4 0  9992
2 25544  51.6435  17.0136 0002447 139.0660 279.2823 15.52471092163511
PCSAT
1 26931U 01043C   19092.52486087 -.00000049  00000-0  12940-4 0  9994
2 26931  67.0515 202.8060 0005650 276.8068  83.2390 14.30536715913933
SAUDISAT 1C
1 27607U 02058C   19092.14736511 -.00000015  00000-0  18773-4 0  9993
2 27607  64.5539 286.6757 0082391 271.2981  87.8683 14.75531165875592
CUTE-1
1 27844U 03031E   19091.91111729 +.00000041 +00000-0 +38278-4 0  9990
2 27844 098.6866 101.2790 0008695 254.4271 105.5947 14.22167487817192
CUBESAT XI 4
1 27848U 03031J   19091.95152457 +.00000037 +00000-0 +36880-4 0  9993
2 27848 098.6944 101.8011 0008541 266.9457 093.0743 14.21764084817065
MOZHAYETS 4
1 27939U 03042A   19092.55283309  .00000157  00000-0  36679-4 0  9993
2 27939  98.0260 229.9292 0011845 316.5930  43.4349 14.66765032829239
CUBESAT XI 5
1 28895U 05043F   19092.39491256  .00000094  00000-0  26835-4 0  9995
2 28895  97.9459 237.8304 0015770 232.6040 127.3728 14.63643402716176
CUTE-1.7+APD II
1 32785U 08021C   19092.50234570  .00000174  00000-0  24413-4 0  9993
2 32785  97.5495  95.8613 0013763 153.0042 207.1894 14.88270626592206
DELFI C3
1 32789U 08021G   19092.12340705  .00000700  00000-0  51061-4 0  9997
2 32789  97.4737 144.1007 0013095  38.1637 322.0515 15.06756697595280
SEEDS
1 32791U 08021J   19092.51601934  .00000313  00000-0  37165-4 0  9996
2 32791  97.5300 101.7595 0014586 130.8171 229.4315 14.90763644592614
YUBELEINY
1 32953U 08025A   19092.54086904  .00000020  00000-0  75656-4 0  9999
2 32953  82.5072 192.7330 0017804 298.4856  61.4428 12.43088471492722
PRISM (HITOMI)
1 33493U 09002B   19092.50743645  .00000740  00000-0  70494-4 0  9997
2 33493  98.1225  10.5385 0016550  79.9100 280.3987 14.96557354553601
KKS-1 (KISEKI)
1 33499U 09002H   19091.88818369 +.00000115 +00000-0 +24975-4 0  9998
2 33499 098.3548 288.0900 0010491 093.9289 266.3118 14.75418595547326
SWISSCUBE
1 35932U 09051B   19092.02483242  .00000125  00000-0  39210-4 0  9990
2 35932  98.5785 255.7600 0008419  50.8351 309.3592 14.56258224505476
BEESAT
1 35933U 09051C   19091.96393859  .00000112  00000-0  36322-4 0  9994
2 35933  98.5818 257.4168 0006833  64.0102 296.1798 14.56350800505576
ITUPSAT 1
1 35935U 09051E   19092.45810732  .00000063  00000-0  25603-4 0  9990
2 35935  98.5930 258.1679 0009063  57.9109 302.2966 14.55514230505400
XIWANG-1 (HOPE-1)
1 36122U 09072B   19091.67891537 -.00000035  00000-0  18909-4 0  9998
2 36122 100.0755  97.7285 0007942 160.5199 199.6217 13.16348756446615
TISAT 1
1 36799U 10035E   19091.90552303 +.00000360 +00000-0 +42480-4 0  9991
2 36799 098.1435 241.5318 0011794 347.3311 012.7608 14.91039077472978
JUGNU
1 37839U 11058B   19091.41265375  .00000308  00000-0  22136-4 0  9997
2 37839  19.9612  89.4646 0018927 183.4258 303.5052 14.12645768386172
SRMSAT
1 37841U 11058D   19092.18045785  .00000307  00000-0  23655-4 0  9992
2 37841  19.9711 139.9821 0012070  65.4202 330.9128 14.10627836385735
M-CUBED/EXP-1 PRIME
1 37855U 11061F   19092.16497944  .00000649  00000-0  40888-4 0  9993
2 37855 101.7258 307.9290 0174098 306.6138  51.9168 15.05227810405112
HORYU 2
1 38340U 12025D   19091.87104675  .00000139  00000-0  28447-4 0  9998
2 38340  98.3385 128.0888 0011750  18.9503 341.2140 14.75685252369683
STRAND 1
1 39090U 13009E   19091.83635456 +.00000036 +00000-0 +27888-4 0  9990
2 39090 098.4966 299.0648 0009600 153.7530 206.4143 14.35076182319204
SOMP
1 39134U 13015E   19092.05475887  .00000956  00000-0  53467-4 0  9994
2 39134  64.8622 271.9261 0023668 315.9614  43.9627 15.19939166328792
BEESAT 3
1 39135U 13015F   19092.56494918  .00000610  00000-0  40310-4 0  9997
2 39135  64.8664 287.5105 0010620 308.0884  51.9283 15.17286823328548
BEESAT 2
1 39136U 13015G   19091.91406109 +.00000558 +00000-0 +38244-4 0  9995
2 39136 064.8683 293.1933 0011872 302.0100 057.9871 15.16729386327988
CUBEBUG 1
1 39153U 13018D   19092.24492837  .00000159  00000-0  27680-4 0  9996
2 39153  97.9742 190.8286 0018389  90.1527 270.1793 14.80532583320360
ZACUBE
1 39417U 13066B   19092.55238477  .00000166  00000-0  27374-4 0  9992
2 39417  97.5674 110.3704 0057438 287.3647  72.1289 14.81076427289620
TRITON 1
1 39427U 13066M   19092.49227247  .00000215  00000-0  41960-4 0  9991
2 39427  97.6695  74.6721 0115154  53.1320 308.0376 14.67800236287019
GOMX 1
1 39430U 13066Q   19092.48144699  .00000171  00000-0  39532-4 0  9996
2 39430  97.7382  54.1623 0151907 137.2169 224.0967 14.59213469285346
HUMSAT D
1 39433U 13066T   19092.09385873  .00000481  00000-0  52324-4 0  9995
2 39433  97.5636 142.7322 0030489 196.7947 163.2266 14.92118172291507
CUBEBUG 2
1 39440U 13066AA  19092.18812438  .00000196  00000-0  34333-4 0  9998
2 39440  97.6019  95.2045 0079706 337.8357  21.9414 14.75815005288548
FUNCUBE 1
1 39444U 13066AE  19092.52779881  .00000201  00000-0  31244-4 0  9999
2 39444  97.5662 112.2149 0056516 281.4778  78.0092 14.81886784288505
UWE-3
1 39446U 13066AG  19092.52800752  .00000176  00000-0  30138-4 0  9995
2 39446  97.5834 102.4465 0068873 312.7568  46.7861 14.78349805287862
SPROUT
1 39770U 14029E   19092.53130748  .00000610  00000-0  73796-4 0  9997
2 39770  97.8795 196.3649 0008782 348.5908  11.5153 14.87233898263362
UNISAT 6
1 40012U 14033C   19092.21809303  .00000120  00000-0  25406-4 0  9999
2 40012  97.7695 322.1139 0058163 349.2583  10.7379 14.73943634257274
DUCHIFAT 1
1 40021U 14033M   19092.54763012  .00000363  00000-0  43040-4 0  9994
2 40021  97.9228  16.8972 0011856 309.4501  50.5667 14.90560638260056
QB50P1
1 40025U 14033R   19092.54992280  .00000209  00000-0  28305-4 0  9995
2 40025  97.9066  12.3592 0011504 318.9705  41.0645 14.88893039259847
CHUBUSAT 1
1 40300U 14070C   19092.20777309  .00000482  00000-0  24076-4 0  9992
2 40300  97.3338 168.3339 0019249 332.8413  82.7360 15.21969428244232
NUDT-PHONESAT
1 40900U 15049B   19092.29886813  .00001867  00000-0  83587-4 0  9995
2 40900  97.4404 102.4043 0014994  95.5912  28.5457 15.22440380195886
ZDPS 2A
1 40901U 15049C   19092.53643613  .00000945  00000-0  50262-4 0  9992
2 40901  97.4612  99.4796 0015311 108.1999 351.0059 15.17578890195534
ZDPS 2B
1 40902U 15049D   19092.49467944  .00000831  00000-0  44910-4 0  9996
2 40902  97.4550  97.0415 0015424 105.9862  45.0224 15.17350732195501
XW-2A
1 40903U 15049E   19092.47856010  .00001785  00000-0  44450-4 0  9999
2 40903  97.3489 134.7761 0015650  69.1901  38.1059 15.41530184198354
KAITUO 1A
1 40904U 15049F   19092.54320895  .00000639  00000-0  37336-4 0  9997
2 40904  97.4671  95.8793 0016321 111.8427   3.3144 15.15286083195314
OBJECT G
1 40905U 15049G   19092.56955986  .00000075  00000-0  76700-5 0  9998
2 40905  97.4696  93.5546 0017386 107.3435  10.0973 15.14215809195204
XW-2C
1 40906U 15049H   19092.35970500  .00000464  00000-0  27896-4 0  9998
2 40906  97.4673  95.7272 0016561 104.7298   2.2926 15.15561195195284
XW-2D
1 40907U 15049J   19092.54671013  .00000801  00000-0  45369-4 0  9997
2 40907  97.4658  95.5905 0016135 101.6489  16.1918 15.15742922195323
LILACSAT 2
1 40908U 15049K   19092.38943829  .00000419  00000-0  26820-4 0  9993
2 40908  97.4784  94.4035 0017765 108.0124 359.7826 15.13735428195115
XW-2F
1 40910U 15049M   19092.58018689  .00000779  00000-0  42589-4 0  9994
2 40910  97.4630  97.4613 0016862  97.2855  21.2857 15.17115910195320
XW-2B
1 40911U 15049N   19092.45168278  .00000416  00000-0  25289-4 0  9997
2 40911  97.4680  96.1249 0015944 103.3780  57.1357 15.15673513195209
KAITUO 1B
1 40912U 15049P   19092.39617858  .00001142  00000-0  57004-4 0  9991
2 40912  97.4521 100.7571 0017006  83.3525  22.3384 15.19406035195570
TIANWANG 1C (TW-1C)
1 40926U 15051B   19092.49148826  .00009892  00000-0  15454-3 0  9996
2 40926  97.1461 138.8134 0006347 303.3043 164.1051 15.53974481198165
